CW1532 New London CT US current weather conditions

sailwx.info

Wind from 174

Air temperature 8.9° C
Dewpoint 8.4° C

Last reported at 2019-Dec-09 13:03 UTC.
Time now 2019-Dec-09 13:52 UTC

Location: N 41°21' W 072°08'.
View on Google Maps.

See reports from other nearby stations

  
Tides and Currents Weather Stations Pressure Air Temp Water Temp Dewpoint Dewpoint Depression Visibility Wind Speed Wind Dir Waves Ship Positions
date/time (UTC)wind fromknots sea level pressurealtimeterstation pressurevisibilityair tempwater tempwave heightnotes
2019-Dec-09 13:03 174 8.9
2019-Dec-09 12:58 174 8.9
2019-Dec-09 12:53 174 8.3
2019-Dec-09 12:48 188 8.9
2019-Dec-09 12:43 188 8.3
2019-Dec-09 12:38 188 7.8
2019-Dec-09 12:33 219 6.7
2019-Dec-09 12:30 219 6.1
2019-Dec-09 12:23 219 6.1
2019-Dec-09 12:18 219 6.1
2019-Dec-09 12:13 264 6.1
2019-Dec-09 12:08 264 5.6
2019-Dec-09 12:03 264 6.1
2019-Dec-09 11:58 264 5.6
2019-Dec-09 11:53 264 5.6
2019-Dec-09 11:48 184 5.6
2019-Dec-09 11:43 184 5.6
2019-Dec-09 11:38 184 5.6
2019-Dec-09 11:33 184 5.6
2019-Dec-09 11:28 184 5.6
2019-Dec-09 11:23 184 5.6
2019-Dec-09 11:18 184 5.6
2019-Dec-09 11:15 184 5.0
2019-Dec-09 11:08 184 5.6
2019-Dec-09 11:03 184 5.6
2019-Dec-09 10:58 184 5.6
2019-Dec-09 10:53 184 5.6
2019-Dec-09 10:48 184 5.6
2019-Dec-09 10:43 184 5.6
2019-Dec-09 10:38 184 5.6
2019-Dec-09 10:33 184 5.0
2019-Dec-09 10:28 184 5.6
2019-Dec-09 10:23 184 6.1
2019-Dec-09 10:18 184 0 gusting 1 5.6
2019-Dec-09 10:13 198 5.6
2019-Dec-09 10:08 198 5.6
2019-Dec-09 10:03 198 5.6
2019-Dec-09 09:58 198 6.1
2019-Dec-09 09:53 198 6.7
2019-Dec-09 09:48 198 6.7
2019-Dec-09 09:43 198 6.7
2019-Dec-09 09:38 198 6.1
2019-Dec-09 09:33 198 6.1
2019-Dec-09 09:30 198 6.1
2019-Dec-09 09:23 198 6.1
2019-Dec-09 09:18 198 6.1
2019-Dec-09 09:13 198 6.1
2019-Dec-09 09:08 198 6.1
2019-Dec-09 09:03 198 5.6
2019-Dec-09 08:58 198 5.6
2019-Dec-09 08:53 198 5.6
2019-Dec-09 08:48 198 5.6
2019-Dec-09 08:43 198 5.6
2019-Dec-09 08:38 198 5.6
2019-Dec-09 08:33 198 5.6
2019-Dec-09 08:28 198 6.1
2019-Dec-09 08:23 198 6.1
2019-Dec-09 08:18 198 6.1
2019-Dec-09 08:13 198 6.1
2019-Dec-09 08:08 198 6.1
2019-Dec-09 08:03 198 6.7
2019-Dec-09 07:58 198 6.7
2019-Dec-09 07:53 198 7.2
2019-Dec-09 07:48 198 7.2
2019-Dec-09 07:43 198 7.8
2019-Dec-09 07:38 198 7.8
2019-Dec-09 07:33 198 7.8
2019-Dec-09 07:28 198 7.8
2019-Dec-09 07:23 198 7.8
2019-Dec-09 07:18 198 7.8
2019-Dec-09 07:13 198 7.8
2019-Dec-09 07:08 198 7.8
2019-Dec-09 07:03 180 8.3
2019-Dec-09 06:58 181 8.3
2019-Dec-09 06:53 244 7.8
2019-Dec-09 06:48 175 7.8
2019-Dec-09 06:43 208 1 gusting 4 7.8
2019-Dec-09 06:38 218 1 gusting 4 7.8
2019-Dec-09 06:33 234 7.8
2019-Dec-09 06:30 227 7.8
2019-Dec-09 06:23 215 1 gusting 5 7.8
2019-Dec-09 06:18 204 0 gusting 6 7.8
2019-Dec-09 06:13 253 0 gusting 6 7.8
2019-Dec-09 06:08 175 0 gusting 2 7.2
2019-Dec-09 06:03 201 7.2
2019-Dec-09 05:58 201 7.2
2019-Dec-09 05:53 200 7.2
2019-Dec-09 05:48 213 0 gusting 3 7.2
2019-Dec-09 05:43 178 0 gusting 3 7.2
2019-Dec-09 05:38 178 7.2
2019-Dec-09 05:33 190 0 gusting 7 6.7
2019-Dec-09 05:28 167 0 gusting 4 6.7
2019-Dec-09 05:23 163 6.7
2019-Dec-09 05:18 175 1 gusting 6 6.1
2019-Dec-09 05:13 171 0 gusting 6 6.1
2019-Dec-09 05:08 192 5.6
2019-Dec-09 05:03 180 0 gusting 4 5.6
2019-Dec-09 04:58 180 0 gusting 4 5.0
2019-Dec-09 04:53 182 4.4
2019-Dec-09 04:48 157 4.4
2019-Dec-09 04:43 157 3.9
2019-Dec-09 04:38 184 3.3
2019-Dec-09 04:33 184 2.8
2019-Dec-09 04:28 188 2.2
2019-Dec-09 04:23 188 1.1
2019-Dec-09 04:18 188 0.6
2019-Dec-09 04:15 188 0.6
2019-Dec-09 04:08 188 0.6
2019-Dec-09 04:03 188 -0.0
2019-Dec-09 03:58 188 -0.0
2019-Dec-09 03:53 188 -0.0
2019-Dec-09 03:48 188 -0.0
2019-Dec-09 03:43 188 -0.0
2019-Dec-09 03:38 188 -0.0
2019-Dec-09 03:33 188 -0.6
2019-Dec-09 03:28 188 -0.6
2019-Dec-09 03:23 188 -0.6
2019-Dec-09 03:18 188 -0.6
2019-Dec-09 03:13 188 -0.6
2019-Dec-09 03:08 188 -0.6
2019-Dec-09 03:03 188 -0.6
2019-Dec-09 02:58 188 -0.6
2019-Dec-09 02:53 188 -0.6
2019-Dec-09 02:49 188 -0.6
2019-Dec-09 02:43 188 -0.0
2019-Dec-09 02:38 188 -0.0
2019-Dec-09 02:33 188 -0.0
2019-Dec-09 02:28 188 -0.6
2019-Dec-09 02:23 188 -0.6
2019-Dec-09 02:18 188 -0.6
2019-Dec-09 02:13 188 -0.6
2019-Dec-09 02:08 188 -0.6
2019-Dec-09 02:03 188 -0.0
2019-Dec-09 01:58 188 -0.0
2019-Dec-09 01:53 188 -0.6
2019-Dec-09 01:48 188 -0.6
2019-Dec-09 01:43 188 -0.6
2019-Dec-09 01:38 188 -0.6
2019-Dec-09 01:33 188 -0.0
2019-Dec-09 01:28 188 -0.0
2019-Dec-09 01:23 188 -0.6
2019-Dec-09 01:18 188 -0.6
2019-Dec-09 01:13 188 -0.0
2019-Dec-09 01:08 188 -0.0
2019-Dec-09 01:03 188 -0.0
2019-Dec-09 00:58 188 -0.0
2019-Dec-09 00:53 188 -0.6
2019-Dec-09 00:48 188 -0.6
2019-Dec-09 00:43 188 -0.0
2019-Dec-09 00:38 188 -0.0
2019-Dec-09 00:33 188 -0.0
2019-Dec-09 00:30 188 -0.6
2019-Dec-09 00:23 188 -0.0
2019-Dec-09 00:18 188 -0.0
2019-Dec-09 00:13 188 -0.0
2019-Dec-09 00:08 188 0.6
2019-Dec-09 00:03 188 1.1
2019-Dec-09 00:00 188 1.1
2019-Dec-08 23:53 188 2.2
2019-Dec-08 23:48 188 2.2
2019-Dec-08 23:43 188 2.2
2019-Dec-08 23:38 188 2.2
2019-Dec-08 23:33 188 2.2
2019-Dec-08 23:28 188 2.2
2019-Dec-08 23:23 188 0 gusting 3 2.2
2019-Dec-08 23:18 187 2.2
2019-Dec-08 23:13 187 2.2
2019-Dec-08 23:08 187 1.7
2019-Dec-08 23:03 187 1.7
2019-Dec-08 22:58 187 2.2
2019-Dec-08 22:53 187 2.2
2019-Dec-08 22:48 187 2.2
2019-Dec-08 22:43 187 2.2
2019-Dec-08 22:38 187 2.2
2019-Dec-08 22:33 187 2.2
2019-Dec-08 22:28 207 0 gusting 2 2.2
2019-Dec-08 22:23 209 0 gusting 2 2.2
2019-Dec-08 22:18 205 2.2
2019-Dec-08 22:13 203 2.2
2019-Dec-08 22:08 211 0 gusting 2 2.2
2019-Dec-08 22:03 211 2.2
2019-Dec-08 21:58 221 2.2
2019-Dec-08 21:53 218 2.2
2019-Dec-08 21:48 220 2.2
2019-Dec-08 21:43 215 1 gusting 4 2.2
2019-Dec-08 21:38 221 1 gusting 8 2.2
2019-Dec-08 21:33 267 1 gusting 8 2.2
2019-Dec-08 21:28 165 1 gusting 5 2.2
2019-Dec-08 21:23 229 0 gusting 2 2.2
2019-Dec-08 21:18 229 0 gusting 5 2.2
2019-Dec-08 21:13 232 1 gusting 5 2.2
2019-Dec-08 21:08 243 0 gusting 6 2.2
2019-Dec-08 21:03 244 2.2
2019-Dec-08 21:00 257 2 gusting 6 2.2
2019-Dec-08 20:53 240 1 gusting 5 2.8
2019-Dec-08 20:48 218 3 gusting 7 2.8
2019-Dec-08 20:43 200 3 gusting 6 2.8
2019-Dec-08 20:38 213 2 gusting 7 2.8
2019-Dec-08 20:33 250 1 gusting 7 2.8
2019-Dec-08 20:28 224 2 gusting 7 2.8
2019-Dec-08 20:23 263 1 gusting 6 2.8
2019-Dec-08 20:18 225 2 gusting 9 2.8
2019-Dec-08 20:13 217 1 gusting 6 2.8
2019-Dec-08 20:08 215 2 gusting 6 2.8
2019-Dec-08 20:03 224 1 gusting 6 2.8
2019-Dec-08 19:58 193 3 gusting 6 2.8
2019-Dec-08 19:53 208 2 gusting 7 2.8
2019-Dec-08 19:48 188 2 gusting 8 2.8
2019-Dec-08 19:43 244 3 gusting 8 2.8
2019-Dec-08 19:38 227 2 gusting 7 2.8
2019-Dec-08 19:33 169 2 gusting 6 2.8
2019-Dec-08 19:28 172 2 gusting 6 2.8
2019-Dec-08 19:23 226 1 gusting 8 2.8
2019-Dec-08 19:18 172 2 gusting 6 2.8
2019-Dec-08 19:13 152 1 gusting 8 2.8
2019-Dec-08 19:08 195 4 gusting 8 2.2
2019-Dec-08 19:03 243 2 gusting 7 2.2
2019-Dec-08 18:58 190 2 gusting 7 2.2
2019-Dec-08 18:53 215 1 gusting 6 2.2
2019-Dec-08 18:48 248 1 gusting 6 2.2
2019-Dec-08 18:43 195 2 gusting 7 2.2
2019-Dec-08 18:38 200 3 gusting 7 2.2
2019-Dec-08 18:33 237 3 gusting 6 2.2
2019-Dec-08 18:28 212 2 gusting 8 2.2
2019-Dec-08 18:23 186 3 gusting 8 2.2
2019-Dec-08 18:18 217 1 gusting 7 2.2
2019-Dec-08 18:13 198 2 gusting 10 1.7
2019-Dec-08 18:08 238 4 gusting 10 1.7
2019-Dec-08 18:03 215 4 gusting 8 1.7
2019-Dec-08 17:58 182 4 gusting 9 1.7
2019-Dec-08 17:53 247 4 gusting 9 1.7
2019-Dec-08 17:48 233 5 gusting 13 1.7
2019-Dec-08 17:43 239 6 gusting 13 1.7
2019-Dec-08 17:38 189 1 gusting 7 1.7
2019-Dec-08 17:33 219 3 gusting 7 2.2
2019-Dec-08 17:30 194 2 gusting 6 1.7
2019-Dec-08 17:23 236 2 gusting 7 1.7
2019-Dec-08 17:18 218 3 gusting 7 1.7
2019-Dec-08 17:15 205 3 gusting 6 1.1
2019-Dec-08 17:08 245 3 gusting 7 1.7
2019-Dec-08 17:03 167 2 gusting 7 1.7
2019-Dec-08 16:58 194 2 gusting 6 1.7
2019-Dec-08 16:53 232 0 gusting 6 1.7
2019-Dec-08 16:48 238 2 gusting 6 1.7
2019-Dec-08 16:43 239 1 gusting 8 1.7
2019-Dec-08 16:38 228 3 gusting 8 1.7
2019-Dec-08 16:33 165 5 gusting 7 1.7
2019-Dec-08 16:28 236 3 gusting 6 1.7
2019-Dec-08 16:23 221 0 gusting 6 1.7
2019-Dec-08 16:18 192 0 gusting 8 1.1
2019-Dec-08 16:13 223 3 gusting 8 1.1
2019-Dec-08 16:08 196 1 gusting 5 1.1
2019-Dec-08 16:03 133 1 gusting 5 1.1
2019-Dec-08 15:58 203 2 gusting 5 1.1
2019-Dec-08 15:53 198 0 gusting 5 1.1
2019-Dec-08 15:48 148 2 gusting 5 0.6
2019-Dec-08 15:43 184 0.6
2019-Dec-08 15:38 153 2 gusting 6 0.6
2019-Dec-08 15:33 141 1 gusting 5 0.6
2019-Dec-08 15:28 169 2 gusting 5 -0.0
2019-Dec-08 15:23 164 2 gusting 6 -0.0
2019-Dec-08 15:18 138 2 gusting 6 -0.0
2019-Dec-08 15:13 173 0 gusting 6 -0.6
2019-Dec-08 15:08 151 2 gusting 6 -0.6
2019-Dec-08 15:03 130 1 gusting 3 -0.6
2019-Dec-08 14:58 173 0 gusting 5 -0.6
2019-Dec-08 14:53 165 1 gusting 5 -0.6
2019-Dec-08 14:48 157 1 gusting 4 -1.1
2019-Dec-08 14:43 129 1 gusting 3 -1.1
2019-Dec-08 14:38 022 -1.1
2019-Dec-08 14:33 022 -1.7
2019-Dec-08 14:28 022 -2.2
2019-Dec-08 14:23 022 -2.2
2019-Dec-08 14:18 022 -2.8
2019-Dec-08 14:13 022 0 gusting 1 -2.8
2019-Dec-08 14:08 022 -2.8
2019-Dec-08 14:03 022 -3.3
2019-Dec-08 13:58 022 -3.9
2019-Dec-08 13:53 022 -3.9
2019-Dec-08 13:48 022 1 gusting 2 -4.4
2019-Dec-08 13:45 355 0 gusting 2 -5.0
2019-Dec-08 13:38 355 0 gusting 1 -5.0
2019-Dec-08 13:33 327 -5.6
2019-Dec-08 13:28 327 -5.6
2019-Dec-08 13:23 327 -6.1
2019-Dec-08 13:18 327 -6.1
2019-Dec-08 13:13 327 -6.1
2019-Dec-08 13:08 327 -6.7
2019-Dec-08 13:03 327 -7.2
2019-Dec-08 12:58 327 -7.8
2019-Dec-08 12:53 327 -7.8
2019-Dec-08 12:48 327 -7.8
2019-Dec-08 12:43 327 -8.3
2019-Dec-08 12:38 327 -8.3
2019-Dec-08 12:33 327 -8.3
2019-Dec-08 12:28 327 -8.9
2019-Dec-08 12:23 327 -8.9
2019-Dec-08 12:18 327 -8.9
2019-Dec-08 12:13 327 -8.9
2019-Dec-08 12:08 327 -8.9
2019-Dec-08 12:03 327 -8.9
2019-Dec-08 11:58 327 -8.3
2019-Dec-08 11:53 327 -8.3
2019-Dec-08 11:48 327 -8.3
2019-Dec-08 11:45 327 -8.9
2019-Dec-08 11:38 327 -8.3
2019-Dec-08 11:33 327 -8.3
2019-Dec-08 11:28 327 -8.3
2019-Dec-08 11:23 327 -8.3
2019-Dec-08 11:18 327 -8.3
2019-Dec-08 11:13 327 -8.3
2019-Dec-08 11:08 327 -8.3
2019-Dec-08 11:03 327 -8.3
2019-Dec-08 10:58 327 -8.3
2019-Dec-08 10:53 327 -7.8
2019-Dec-08 10:48 327 -7.8
2019-Dec-08 10:43 327 -7.8
2019-Dec-08 10:38 327 -7.2
2019-Dec-08 10:33 327 -7.2
2019-Dec-08 10:28 327 -7.2
2019-Dec-08 10:23 327 -7.2
2019-Dec-08 10:18 327 -7.8
2019-Dec-08 10:13 327 -7.8
2019-Dec-08 10:08 327 -8.3
2019-Dec-08 10:03 327 -8.3
2019-Dec-08 09:58 327 -8.3
2019-Dec-08 09:53 327 -8.3
2019-Dec-08 09:48 327 -7.8
2019-Dec-08 09:43 327 -7.2
2019-Dec-08 09:38 327 -7.2
2019-Dec-08 09:33 327 -7.8
2019-Dec-08 09:28 327 -7.8
2019-Dec-08 09:23 327 -8.3
2019-Dec-08 09:18 327 -8.3
2019-Dec-08 09:13 327 -8.3
2019-Dec-08 09:08 327 -8.3
2019-Dec-08 09:03 327 -8.3
2019-Dec-08 08:58 327 -7.8
2019-Dec-08 08:53 327 -7.8
2019-Dec-08 08:48 327 -7.8
2019-Dec-08 08:45 327 -7.8
2019-Dec-08 08:38 327 -7.8
2019-Dec-08 08:33 327 -7.8
2019-Dec-08 08:28 327 -7.8
2019-Dec-08 08:23 327 -7.8
2019-Dec-08 08:18 327 -7.8
2019-Dec-08 08:13 327 -7.2
2019-Dec-08 08:08 327 -7.2
2019-Dec-08 08:03 327 -7.2
2019-Dec-08 07:58 327 -7.2
2019-Dec-08 07:53 327 -7.2
2019-Dec-08 07:48 327 -7.2
2019-Dec-08 07:43 327 -6.7
2019-Dec-08 07:38 327 -6.7
2019-Dec-08 07:33 327 -6.1
2019-Dec-08 07:28 327 -5.6
2019-Dec-08 07:23 327 -5.6
2019-Dec-08 07:18 327 -5.6
2019-Dec-08 07:13 327 0 gusting 0 -5.6
2019-Dec-08 07:08 327 -5.6
2019-Dec-08 07:03 327 -5.6
2019-Dec-08 06:58 327 -5.6
2019-Dec-08 06:53 327 -6.1
2019-Dec-08 06:48 327 -5.6
2019-Dec-08 06:43 327 -5.6
2019-Dec-08 06:38 327 -5.6
2019-Dec-08 06:33 327 -5.0
2019-Dec-08 06:28 327 -5.0
2019-Dec-08 06:23 327 -5.0
2019-Dec-08 06:18 327 -5.0
2019-Dec-08 06:13 327 -5.0
2019-Dec-08 06:08 327 -5.0
2019-Dec-08 06:03 327 -4.4
2019-Dec-08 05:58 327 -4.4
2019-Dec-08 05:53 327 -4.4
2019-Dec-08 05:48 327 -4.4
2019-Dec-08 05:43 327 -4.4
2019-Dec-08 05:38 327 -4.4
2019-Dec-08 05:33 327 -4.4
2019-Dec-08 05:28 327 -4.4
2019-Dec-08 05:23 327 -4.4
2019-Dec-08 05:18 327 -4.4
2019-Dec-08 05:13 327 -4.4
2019-Dec-08 05:08 327 -4.4
2019-Dec-08 05:03 327 -4.4
2019-Dec-08 04:58 327 -4.4
2019-Dec-08 04:53 327 -3.9
2019-Dec-08 04:48 327 -3.9
2019-Dec-08 04:43 327 -3.9
2019-Dec-08 04:38 327 -3.9
2019-Dec-08 04:33 327 -3.9
2019-Dec-08 04:28 327 -3.3
2019-Dec-08 04:23 327 -3.3
2019-Dec-08 04:18 327 0 gusting 1 -3.3
2019-Dec-08 04:13 327 0 gusting 1 -3.3
2019-Dec-08 04:08 327 0 gusting 1 -3.3
2019-Dec-08 04:03 327 0 gusting 0 -3.3
2019-Dec-08 03:58 327 -3.3
2019-Dec-08 03:53 327 -3.3
2019-Dec-08 03:48 327 -3.3
2019-Dec-08 03:43 327 -3.3
2019-Dec-08 03:38 327 -3.3
2019-Dec-08 03:33 327 -2.8
2019-Dec-08 03:28 327 -2.8
2019-Dec-08 03:23 327 -2.8
2019-Dec-08 03:18 327 -2.8
2019-Dec-08 03:13 327 -2.8
2019-Dec-08 03:08 327 0 gusting 2 -2.2
2019-Dec-08 03:03 327 0 gusting 2 -2.2
2019-Dec-08 02:58 327 0 gusting 4 -2.2
2019-Dec-08 02:53 327 0 gusting 4 -2.2
2019-Dec-08 02:48 339 0 gusting 3 -2.2
2019-Dec-08 02:43 339 1 gusting 4 -2.2
2019-Dec-08 02:38 308 2 gusting 5 -2.2
2019-Dec-08 02:33 313 3 gusting 7 -2.2
2019-Dec-08 02:28 306 1 gusting 7 -2.8
2019-Dec-08 02:23 332 0 gusting 2 -2.8
2019-Dec-08 02:18 332 0 gusting 1 -3.3
2019-Dec-08 02:13 332 -3.3
2019-Dec-08 02:08 332 -2.8
2019-Dec-08 02:03 332 -2.8
2019-Dec-08 01:58 332 -2.8
2019-Dec-08 01:53 332 -2.8
2019-Dec-08 01:48 332 -3.3
2019-Dec-08 01:43 332 -3.3
2019-Dec-08 01:38 332 -2.8
2019-Dec-08 01:33 332 -2.8
2019-Dec-08 01:28 332 -2.2
2019-Dec-08 01:23 332 -2.2
2019-Dec-08 01:18 332 -2.2
2019-Dec-08 01:13 332 -2.2
2019-Dec-08 01:08 332 -2.2
2019-Dec-08 01:03 332 -2.2
2019-Dec-08 00:58 332 -1.7
2019-Dec-08 00:53 332 -1.7
2019-Dec-08 00:48 332 -2.2
2019-Dec-08 00:43 332 -2.2
2019-Dec-08 00:38 332 -2.2
2019-Dec-08 00:33 332 -2.2
2019-Dec-08 00:30 332 -2.2
2019-Dec-08 00:23 332 0 gusting 1 -2.2
2019-Dec-08 00:18 332 -2.2
2019-Dec-08 00:13 332 -2.2
2019-Dec-08 00:08 332 -2.2
2019-Dec-08 00:03 332 -2.2
2019-Dec-07 23:58 332 -2.2
2019-Dec-07 23:53 332 -2.2
2019-Dec-07 23:48 332 -2.2
2019-Dec-07 23:43 332 -1.7
2019-Dec-07 23:38 332 -1.7
2019-Dec-07 23:33 332 -2.2
2019-Dec-07 23:28 332 -2.2
2019-Dec-07 23:23 332 -2.2
2019-Dec-07 23:18 332 -2.2
2019-Dec-07 23:13 332 -2.2
2019-Dec-07 23:08 332 -1.7
2019-Dec-07 23:03 332 -1.7
2019-Dec-07 22:58 332 -1.7
2019-Dec-07 22:53 332 -1.7
2019-Dec-07 22:48 332 -1.7
2019-Dec-07 22:43 332 -1.1
2019-Dec-07 22:38 332 -1.1
2019-Dec-07 22:33 332 -0.6
2019-Dec-07 22:28 332 -0.6
2019-Dec-07 22:23 332 -0.6
2019-Dec-07 22:18 332 -0.6
2019-Dec-07 22:13 332 -0.6
2019-Dec-07 22:08 332 -0.6
2019-Dec-07 22:03 332 -0.0
2019-Dec-07 21:58 332 -0.0
2019-Dec-07 21:53 332 -0.0
2019-Dec-07 21:48 332 -0.0
2019-Dec-07 21:45 332 -0.0
2019-Dec-07 21:38 332 0.6
2019-Dec-07 21:33 332 0.6
2019-Dec-07 21:28 332 0.6
2019-Dec-07 21:23 332 1.1
2019-Dec-07 21:18 332 0 gusting 4 1.1
2019-Dec-07 21:13 334 1 gusting 4 1.1
2019-Dec-07 21:08 313 2 gusting 4 1.1
2019-Dec-07 21:03 309 1 gusting 3 1.1
2019-Dec-07 20:58 290 1 gusting 4 1.1
2019-Dec-07 20:53 331 2 gusting 6 1.7
2019-Dec-07 20:48 314 4 gusting 8 1.7
2019-Dec-07 20:43 302 3 gusting 10 1.7
2019-Dec-07 20:38 317 3 gusting 12 1.7
2019-Dec-07 20:33 301 4 gusting 12 1.7
2019-Dec-07 20:30 278 5 gusting 10 1.7
2019-Dec-07 20:23 303 3 gusting 8 2.2
2019-Dec-07 20:18 332 4 gusting 8 2.2
2019-Dec-07 20:13 319 3 gusting 8 2.2
2019-Dec-07 20:08 292 4 gusting 8 2.2
2019-Dec-07 20:03 305 4 gusting 6 2.2
2019-Dec-07 19:58 290 3 gusting 6 2.2
2019-Dec-07 19:53 320 3 gusting 10 2.2
2019-Dec-07 19:48 344 4 gusting 10 2.2
2019-Dec-07 19:43 302 3 gusting 8 2.2
2019-Dec-07 19:38 294 2 gusting 6 2.2
2019-Dec-07 19:33 315 1 gusting 7 2.2
2019-Dec-07 19:28 317 2 gusting 9 2.2
2019-Dec-07 19:23 313 4 gusting 9 2.2
2019-Dec-07 19:18 312 3 gusting 7 2.2
2019-Dec-07 19:13 327 2 gusting 8 2.2
2019-Dec-07 19:08 269 2 gusting 6 2.8
2019-Dec-07 19:03 308 3 gusting 13 2.8
2019-Dec-07 18:58 294 7 gusting 13 2.2
2019-Dec-07 18:53 296 4 gusting 9 2.8
2019-Dec-07 18:48 283 4 gusting 10 2.8
2019-Dec-07 18:45 307 4 gusting 10 2.8
2019-Dec-07 18:38 278 1 gusting 6 2.8
2019-Dec-07 18:33 316 3 gusting 6 2.8
2019-Dec-07 18:28 005 2 gusting 9 2.8
2019-Dec-07 18:23 316 2 gusting 12 2.2
2019-Dec-07 18:18 277 6 gusting 13 2.2
2019-Dec-07 18:13 273 6 gusting 11 2.2
2019-Dec-07 18:08 297 3 gusting 11 2.2
2019-Dec-07 18:03 360 3 gusting 8 2.2
2019-Dec-07 17:58 350 2 gusting 8 2.2
2019-Dec-07 17:53 329 4 gusting 8 2.2
2019-Dec-07 17:48 339 4 gusting 8 2.2
2019-Dec-07 17:43 329 1 gusting 8 2.2
2019-Dec-07 17:38 351 5 gusting 8 2.2
2019-Dec-07 17:33 340 5 gusting 8 2.2
2019-Dec-07 17:28 274 3 gusting 10 2.2
2019-Dec-07 17:23 277 3 gusting 11 1.7
2019-Dec-07 17:18 307 4 gusting 11 1.7
2019-Dec-07 17:13 275 4 gusting 10 2.2
2019-Dec-07 17:08 298 5 gusting 10 2.2
2019-Dec-07 17:03 317 3 gusting 14 2.2
2019-Dec-07 16:58 306 5 gusting 14 2.2
2019-Dec-07 16:53 336 2 gusting 9 1.7
2019-Dec-07 16:48 355 3 gusting 9 1.7
2019-Dec-07 16:43 347 3 gusting 9 1.7
2019-Dec-07 16:38 315 3 gusting 8 2.2
2019-Dec-07 16:33 321 3 gusting 10 1.7
2019-Dec-07 16:28 005 5 gusting 10 1.7
2019-Dec-07 16:23 321 4 gusting 9 1.7
2019-Dec-07 16:18 304 4 gusting 7 1.1
2019-Dec-07 16:13 256 5 gusting 10 1.1
2019-Dec-07 16:08 317 4 gusting 10 1.7
2019-Dec-07 16:03 329 5 gusting 9 1.7
2019-Dec-07 15:58 279 4 gusting 8 1.7
2019-Dec-07 15:53 309 4 gusting 8 1.1
2019-Dec-07 15:48 321 3 gusting 7 1.1
2019-Dec-07 15:43 328 3 gusting 8 1.1
2019-Dec-07 15:38 316 3 gusting 9 1.1
2019-Dec-07 15:33 299 3 gusting 10 1.1
2019-Dec-07 15:28 299 6 gusting 10 1.1
2019-Dec-07 15:23 339 4 gusting 9 1.1
2019-Dec-07 15:18 286 5 gusting 9 1.1
2019-Dec-07 15:13 327 3 gusting 7 0.6
2019-Dec-07 15:08 318 4 gusting 7 0.6
2019-Dec-07 15:03 304 3 gusting 8 0.6
2019-Dec-07 14:58 314 4 gusting 11 0.6
2019-Dec-07 14:53 321 6 gusting 11 0.6
2019-Dec-07 14:48 274 4 gusting 7 0.6
2019-Dec-07 14:43 302 3 gusting 7 0.6
2019-Dec-07 14:38 332 0 gusting 5 0.6
2019-Dec-07 14:33 335 3 gusting 5 -0.0
2019-Dec-07 14:29 304 1 gusting 6 -0.0
2019-Dec-07 14:23 294 2 gusting 6 -0.0
2019-Dec-07 14:18 341 3 gusting 10 -0.6
2019-Dec-07 14:13 338 4 gusting 10 -0.6
2019-Dec-07 14:08 282 3 gusting 7 -0.6
2019-Dec-07 14:03 308 3 gusting 6 -0.6
2019-Dec-07 13:58 324 2 gusting 6 -0.6
2019-Dec-07 13:53 292 2 gusting 6 -1.1
2019-Dec-07 13:48 324 3 gusting 5 -1.1
2019-Dec-07 13:43 300 3 gusting 7 -1.1
2019-Dec-07 13:38 284 2 gusting 7 -1.7
2019-Dec-07 13:33 331 3 gusting 7 -1.1
2019-Dec-07 13:28 329 2 gusting 5 -1.1
2019-Dec-07 13:23 306 3 gusting 8 -1.1
2019-Dec-07 13:18 298 6 gusting 8 -1.1
2019-Dec-07 13:13 281 1 gusting 5 -1.1
2019-Dec-07 13:08 318 3 gusting 6 -1.7
2019-Dec-07 13:03 316 3 gusting 6 -1.7